Starlink 32334

operational
NORAD ID: 62023 Int'l Des: 2024-213 Owner: SPXS Country: US Constellation: starlink
LEOCIRCULAR

Über Starlink 32334

Beschreibung wird geladen...

Live-Position

3D-Globus wird geladen...

Nächste Überflüge

Höhenverlauf

Altitude vs Time

uPlot chart will show altitude changes over time

Zweizeiliger Elementsatz

1 62023U 24213R 25307.66296208 .00025932 00000-0 88402-3 0 9997
2 62023 53.1589 33.2141 0001343 80.2052 279.9101 15.30221875 53863
Epoch: 3. Nov. 2025 • Age: 11 hours

Aktueller Status

Höhe 493.2 km
Geschwindigkeit 7.62 km/s
Subsatellitenpunkt -50.02°S, 113.63°W
Startdatum 18. Nov. 2024
Alter 0.9 years
Typ internet

Technische Details

Klassifizierung Payload
Masse 730.00 kg
Trockenmasse 700.00 kg
Gesamtmasse 730.00 kg
Länge 0.30 m
Durchmesser 4.10 m
Spannweite 29.00 m
Form Box + pan
Hersteller SPXS
Bus-Typ Starlink V2M
Phasenstatus In Orbit
Besitzer/Staat SPXS/US

Große Konstellationen

Loading constellations...